Regional Weather Roundup
Issued by NWS New Orleans/Baton Rouge, LA

Home | Current Version | Previous Version | Graphics & Text | Print | Product List | Glossary On
Versions: 1 2 3 4 5 6 7 8 9 10 11 12 13 14 15 16 17 18 19 20 21 22 23 24 25 26 27 28 29 30 31 32 33 34 35 36 37 38 39 40 41 42 43 44 45 46 47 48 49 50
525
ASUS44 KLIX 201001
RWRLIX
NEW ORLEANS REGIONAL WEATHER ROUNDUP
NATIONAL WEATHER SERVICE NEW ORLEANS LA
500 AM CDT SUN APR 20 2014

NOTE: "FAIR" INDICATES FEW OR NO CLOUDS BELOW 12,000 FEET WITH NO
      SIGNIFICANT WEATHER AND/OR OBSTRUCTIONS TO VISIBILITY.
      SKY/WX - SKY CONDITION AND SIGNIFICANT WEATHER.
      TMP - AIR TEMPERATURE.     DP    - DEWPOINT TEMPERATURE.
      RH  - RELATIVE HUMIDITY.   PRES  - PRESSURE.
      HI  - HEAT INDEX.          WCI   - WIND CHILL INDEX.

*  THESE STATIONS ARE NOT NWS OR FAA STATIONS AND ARE NOT UNDER
   NWS QUALITY CONTROL.

LAZ038-040-048-061>063-065>067-069-201100-
SOUTHEAST LOUISIANA

CITY           SKY/WX    TMP DP  RH WIND       PRES   REMARKS
N.O. AUDUBON     N/A     61  58  88 MISG        N/A
N.O. INTL ARPT CLEAR     59  57  93 W3        30.12S
N.O. LAKEFRONT CLEAR     65  58  78 NE9       30.13S
N.O. DOWNTOWN*   N/A     66  54  63 N5        30.13S
SLIDELL        CLEAR     52  50  93 CALM      30.13R
BATON ROUGE    CLEAR     54  51  90 CALM      30.13S
BOOTHVILLE     CLEAR     61  59  93 N3        30.13R
BELLE CHASSE   CLEAR     54  51  90 CALM      30.12R
BOGALUSA*        N/A     51  48  89 CALM      30.15S
GALLIANO*      NOT AVBL
NEW ROADS*     NOT AVBL
GONZALES*        N/A     55  55 100 CALM      30.13R
HAMMOND*       NOT AVBL
HOUMA*         FOG       56  54  93 CALM      30.12S VSB 1/4
PORT FOURCHON* SUNNY     66  63  88 W7        30.14R

$$

MSZ070-080>082-201100-
SOUTHERN MISSISSIPPI

CITY           SKY/WX    TMP DP  RH WIND       PRES   REMARKS
MCCOMB         PTCLDY    53  49  86 CALM      30.14S
GULFPORT       CLEAR     57  52  83 CALM      30.12S
BILOXI         NOT AVBL
PASCAGOULA     CLEAR     52  51  97 N3        30.14R FOG

$$

COASTAL OBSERVATIONS
LAKE AND NEARSHORE STATIONS

STATION/POSITION TIME  TEMP    WIND        PRES    WAVE
                       AIR SEA DIR/SP/G            HT/PER
                 (UTC) (F)     (DEG/KT/KT) (MB)    (FT/S)
PASCAGOULA       0900   61      40/  3/  4 1019.5
WAVELAND YACHT   0900   62 69   90/  3/  4 1019.4
GRAND ISLE       0900   66 68  310/  7/  9 1020.2
SOUTHWEST PASS   0900   65 58  310/  8/ 10 1020.0
NEW CANAL        0900   67 67   30/  5/  7 1020.3
SHELL BEACH      0900   67 65   30/  8/ 10 1019.8

OFFSHORE STATIONS

STATION/POSITION TIME  TEMP    WIND        PRES    WAVE
                       AIR SEA DIR/SP/G            HT/PER
                 (UTC) (F)     (DEG/KT/KT) (MB)    (FT/S)
64 S DAUPHIN ISL 0950   67 70   40/  8/ 10 1019.6

$$




USA.gov is the U.S. government's official web portal to all federal, state and local government web resources and services.